Wind_Speed
3 3 2 2 2 1 1 1 3 5 5 5 4 3 5 8 7 8 9 11 12 12 10 9 9 8 6 5 6 7 9 9 9 8 8 7 7 6 5 4 4 5 4 5 5 6 7
5 4 4 3 4 3 3 4 5 5 5 5 3 5 7 7 9 10 13 8 8 10 11 10 10 10 9 9 9 9 9 9 9 10 9 8 7 7 7 7 6 5 4 5 6 7 8
7 7 7 6 6 7 7 7 7 6 6 5 4 6 8 8 9 11 12 11 11 12 14 14 13 12 12 12 12 12 12 12 12 12 11 11 10 9 8 7 8 7 7 9 9 7 8
8 8 8 7 7 7 8 8 8 7 6 6 6 7 8 8 9 11 12 12 12 13 13 13 14 13 13 12 12 13 13 13 13 11 11 11 10 10 10 11 11 11 12 7 6 6 3
8 8 8 7 8 8 8 8 8 8 7 6 7 9 9 8 9 12 13 13 11 11 12 14 11 12 10 7 6 8 8 7 6 8 9 10 10 11 12 12 14 13 10 10 6 4 5
8 8 9 9 9 9 9 9 9 8 8 7 8 9 9 9 11 13 15 14 13 13 13 11 11 8 9 11 12 12 12 13 14 13 12 11 11 12 13 14 12 9 9 8 5 4 8
9 9 9 10 10 10 10 10 9 9 9 8 9 9 9 10 12 15 16 14 15 14 11 14 13 14 13 12 9 8 8 9 11 11 12 13 13 13 12 11 11 10 10 12 10 13 16
10 10 10 11 11 11 11 11 10 10 10 10 10 10 11 12 13 15 16 15 14 14 16 16 14 12 9 6 3 3 3 3 4 4 4 6 5 7 9 9 10 12 13 16 16 15 8
10 10 11 11 11 12 12 12 12 12 12 11 11 11 11 12 15 16 16 15 15 15 16 17 12 7 5 4 4 3 3 3 2 3 4 5 6 8 11 14 16 16 16 16 16 17 19
10 11 11 12 12 13 13 13 13 13 13 14 13 13 14 14 16 17 16 15 14 14 10 7 7 4 4 4 5 5 6 5 6 6 8 9 11 12 14 13 14 18 16 15 16 15 6
10 12 12 13 13 13 14 14 14 14 14 15 15 14 15 15 17 19 15 13 13 11 4 4 5 5 5 6 4 6 8 9 10 12 14 13 16 16 16 16 17 15 18 19 18 20 22
12 11 13 13 14 15 15 15 14 15 15 15 16 16 15 16 17 16 12 12 12 6 5 4 4 5 6 7 8 9 10 12 15 19 19 19 16 15 16 16 16 20 16 18 21 19 7
16 13 12 13 14 16 16 17 16 15 15 16 16 16 17 16 15 13 12 11 7 5 5 5 6 6 8 10 13 14 15 17 15 12 12 12 15 18 20 18 16 14 12 6 4 1 6
18 17 15 14 14 16 17 18 18 17 16 16 16 16 16 16 15 13 12 10 6 8 10 12 12 14 15 14 16 16 16 14 13 15 17 10 6 10 12 12 11 13 11 6 5 4 5
21 18 17 16 16 16 17 19 20 20 19 18 18 17 17 16 15 15 15 11 7 10 11 11 11 14 15 13 12 11 13 17 18 11 6 6 7 8 13 16 15 8 10 14 18 21 9
26 23 21 20 19 20 18 18 20 20 21 20 19 20 18 18 16 16 17 18 16 15 16 16 15 10 12 14 11 8 7 8 8 12 14 12 12 12 17 18 19 20 18 9 9 4 6
24 27 27 24 23 25 24 21 20 19 21 21 20 21 21 20 19 19 20 20 20 19 18 16 17 16 18 16 15 15 10 13 15 18 17 17 14 13 14 12 17 17 20 18 15 12 4
28 24 28 27 26 29 28 27 24 22 20 19 21 21 21 19 19 19 22 22 20 20 19 18 19 20 21 20 15 15 17 16 15 16 16 17 16 17 20 22 22 21 23 22 13 7 11
36 27 25 29 30 32 30 30 28 25 25 25 25 26 24 24 24 23 24 24 23 23 22 20 15 15 16 15 11 12 15 17 17 17 12 12 10 11 6 10 12 15 17 19 21 24 17
40 38 30 27 29 26 32 28 28 25 27 28 27 25 25 24 24 24 24 24 24 23 21 21 20 17 16 17 18 13 15 15 19 20 21 19 21 23 20 22 19 16 16 17 20 15 24
40 30 29 28 28 32 31 24 22 21 23 24 25 25 26 23 17 14 16 18 15 15 16 16 20 19 15 16 17 24 27 28 25 25 22 19 25 25 25 26 27 30 27 24 25 29 29
34 32 28 25 37 32 30 30 26 25 24 22 24 26 27 25 23 22 22 22 21 21 22 22 21 18 16 22 24 26 23 24 25 22 20 21 19 21 27 24 25 27 26 26 26 26 28
36 35 33 26 26 30 29 32 23 18 24 26 26 26 24 25 24 22 23 23 22 19 19 19 18 19 22 24 23 24 26 26 25 24 23 22 18 16 9 9 13 17 19 22 22 19 19
34 36 32 30 27 23 30 29 28 26 24 27 29 26 24 27 24 23 24 23 21 20 20 18 21 26 23 22 24 24 24 24 25 24 23 20 17 10 8 10 3 4 4 10 18 19 22
37 33 31 29 30 25 25 27 28 28 27 28 29 23 22 25 22 21 21 20 20 20 20 22 23 23 22 22 20 16 17 18 17 18 18 17 16 9 5 7 16 18 20 16 14 24 27
37 31 25 26 26 30 29 29 27 27 26 23 17 19 21 22 23 20 20 21 21 23 23 24 23 22 20 17 14 7 6 6 4 5 10 14 15 17 9 5 4 4 12 16 18 24 14
26 35 29 27 26 24 26 21 24 26 24 18 19 21 22 23 25 22 20 23 22 22 22 20 19 17 17 15 12 10 8 9 5 5 5 13 15 20 22 15 12 16 14 13 10 14 28
43 22 38 27 28 32 30 28 26 25 22 18 20 22 20 20 21 21 22 23 23 22 20 18 16 16 13 10 8 8 6 8 9 10 8 9 9 9 11 15 12 15 13 14 20 27 30
35 39 25 30 28 32 30 26 23 23 19 20 21 19 18 20 20 19 19 20 19 20 18 16 15 14 9 8 7 6 9 9 11 8 14 11 15 13 10 10 16 21 22 25 26 28 30
Wind_Direction
170 166 181 189 187 190 220 305 328 332 329 314 321 321 324 329 328 324 324 319 316 312 306 301 293 291 290 278 262 258 255 260 259 261 257 260 260 261 252 236 235 232 241 254 259 265 268
201 208 220 237 250 264 280 298 304 305 298 296 299 309 326 325 322 326 324 329 336 328 323 316 308 304 297 294 285 278 269 264 265 262 255 256 256 259 263 261 255 240 254 276 292 285 280
218 231 241 249 263 277 286 283 280 280 280 281 291 310 318 315 318 328 329 324 327 331 327 321 311 298 293 290 282 279 275 271 265 254 251 252 251 247 251 256 250 253 262 282 286 268 278
226 227 240 252 261 266 270 277 282 284 282 280 288 298 302 307 318 324 328 330 325 329 329 316 305 297 286 282 278 274 270 267 264 256 252 252 253 251 249 250 258 271 276 263 206 279 227
236 244 249 252 260 264 266 270 277 280 277 275 289 299 299 305 313 321 324 319 314 304 312 310 307 298 296 294 289 287 275 258 252 257 254 252 247 246 250 260 269 266 254 257 242 197 211
241 247 251 254 257 262 267 272 272 273 275 279 291 299 299 304 316 322 322 317 310 305 305 307 308 307 296 294 288 279 268 267 268 261 255 253 252 253 256 261 264 259 252 251 241 238 275
246 246 254 259 260 267 269 270 268 265 263 273 291 293 292 301 314 323 324 319 312 308 304 305 294 294 287 288 283 277 269 261 255 250 250 256 260 269 267 258 255 259 268 279 290 289 287
259 260 255 255 261 262 267 270 270 269 268 272 283 290 296 303 315 322 320 315 312 308 305 300 293 288 281 275 266 260 248 239 239 233 233 240 252 247 255 257 262 272 281 287 296 297 270
257 260 266 270 270 269 267 267 267 266 266 273 286 293 296 302 310 318 319 317 316 315 308 293 283 269 262 222 228 225 233 217 239 264 252 257 271 255 259 271 281 284 288 291 287 283 281
260 261 262 265 268 272 275 274 273 273 272 276 287 297 302 304 311 317 316 315 316 316 299 276 255 247 228 235 239 234 234 257 271 272 274 280 275 271 271 276 285 286 286 286 285 290 259
265 264 265 267 268 268 271 274 277 277 275 275 282 291 299 305 309 313 312 313 315 319 348 270 255 261 243 231 253 252 254 270 267 272 280 278 278 278 274 278 285 283 290 294 291 286 279
272 275 273 271 273 273 272 270 270 273 273 273 279 288 293 301 309 309 305 311 314 313 263 263 265 270 263 259 266 268 273 276 279 280 281 276 269 263 266 276 278 288 291 297 288 274 258
262 265 274 278 273 273 274 273 272 270 272 273 277 283 290 297 305 302 303 310 303 228 272 270 269 273 282 278 276 275 278 277 275 285 274 276 273 268 270 271 274 275 287 312 303 251 236
257 261 264 272 278 272 270 271 271 271 270 269 271 276 283 291 297 292 293 294 254 258 258 273 278 284 281 282 280 280 279 278 275 272 278 280 270 248 260 255 259 267 253 221 259 235 266
254 259 264 267 274 279 279 274 274 274 270 269 269 270 275 280 284 283 283 269 257 267 272 274 278 280 274 272 264 275 278 277 272 269 248 279 250 251 256 262 262 269 240 249 247 268 290
256 254 260 264 269 276 280 284 279 275 275 272 272 271 272 274 275 273 268 264 257 266 272 274 274 265 261 273 271 271 271 269 262 264 267 271 283 267 264 268 261 252 261 240 211 262 253
244 255 261 269 269 274 277 278 280 283 279 276 274 275 276 275 272 268 261 260 270 272 272 269 272 266 268 271 266 265 258 271 263 267 268 270 264 270 270 262 260 255 241 235 242 245 232
251 250 260 264 258 264 267 268 270 275 277 279 281 278 277 271 265 262 265 268 272 273 272 267 268 269 269 274 270 264 256 258 270 274 272 271 276 271 272 266 261 257 252 244 236 249 245
251 255 254 266 264 265 267 266 271 270 270 277 282 278 272 272 266 266 271 271 270 270 269 271 265 265 271 268 264 252 262 271 273 272 266 260 249 282 274 269 267 255 260 256 250 252 252
250 256 261 260 261 264 262 265 264 263 263 277 279 275 273 271 268 269 271 270 268 268 269 269 268 267 270 269 268 266 270 280 280 275 267 265 260 254 255 277 284 269 260 254 258 263 264
245 257 247 256 262 272 262 261 263 259 263 270 275 272 270 267 269 270 266 261 266 266 266 271 272 276 269 270 279 282 283 281 275 275 270 264 268 271 270 270 275 280 279 274 264 270 264
238 236 249 251 256 264 264 251 253 267 260 263 269 268 268 267 267 266 267 269 270 272 272 273 273 271 267 283 285 278 273 274 277 274 269 267 270 282 285 287 283 276 274 271 266 268 272
235 235 240 249 254 259 255 253 265 262 263 261 267 266 262 259 259 263 268 272 272 272 272 272 270 271 285 283 277 276 276 276 274 275 274 271 271 281 283 296 289 283 270 264 271 278 285
232 232 243 252 247 258 270 258 253 268 273 262 262 255 248 256 260 262 267 270 272 270 270 276 284 283 280 277 277 277 277 276 276 274 270 268 275 268 279 298 252 268 251 273 288 293 296
226 239 243 242 248 257 263 273 262 263 251 252 251 242 247 255 259 261 263 266 270 269 266 280 279 278 277 277 281 282 280 276 269 260 258 261 258 253 252 226 276 284 279 284 291 299 300
224 228 236 235 247 246 257 260 269 261 248 233 231 238 247 256 256 261 266 265 268 267 269 272 272 274 276 278 280 272 261 267 266 255 233 235 238 237 236 247 262 268 291 295 298 300 307
224 228 239 250 235 244 247 265 269 262 245 224 226 231 238 248 255 254 260 273 273 267 269 271 274 275 278 277 275 262 261 251 260 251 247 230 235 237 247 253 270 275 285 292 294 305 309
232 230 224 245 249 257 262 272 265 263 238 226 229 230 234 246 255 259 271 272 271 267 265 273 276 276 276 271 257 255 244 249 258 252 261 244 242 241 252 249 265 271 284 291 297 305 307
243 237 240 248 242 253 262 266 260 261 216 223 237 235 241 240 253 262 262 262 263 267 266 271 265 272 259 250 252 256 252 257 257 262 258 262 245 258 243 256 278 296 303 305 306 308 310
Height
3153 3154 3154 3155 3155 3155 3154 3154 3153 3153 3153 3153 3152 3152 3151 3151 3150 3148 3147 3146 3145 3143 3142 3141 3140 3139 3138 3138 3137 3136 3136 3136 3136 3137 3137 3137 3137 3137 3137 3137 3138 3138 3139 3140 3141 3142 3143
3152 3152 3153 3153 3154 3154 3154 3153 3152 3152 3152 3152 3151 3151 3150 3150 3149 3148 3147 3145 3143 3142 3141 3140 3139 3138 3138 3137 3136 3136 3135 3135 3135 3135 3135 3135 3135 3136 3136 3136 3137 3137 3138 3138 3139 3140 3140
3151 3151 3152 3152 3153 3153 3153 3152 3151 3151 3151 3150 3150 3150 3150 3149 3148 3148 3146 3144 3143 3142 3140 3139 3138 3136 3136 3136 3133 3133 3133 3133 3133 3133 3133 3133 3134 3134 3134 3134 3134 3135 3136 3136 3136 3137 3137
3149 3149 3150 3150 3151 3151 3151 3151 3151 3150 3150 3150 3149 3149 3148 3148 3147 3146 3144 3143 3142 3141 3139 3137 3135 3134 3131 3130 3130 3129 3129 3129 3130 3130 3131 3132 3132 3133 3133 3133 3132 3133 3133 3133 3133 3133 3134
3148 3148 3148 3149 3149 3149 3149 3149 3149 3149 3149 3148 3148 3148 3147 3146 3145 3144 3143 3141 3138 3137 3136 3134 3133 3131 3130 3129 3128 3128 3128 3127 3127 3128 3128 3129 3130 3130 3131 3131 3131 3130 3130 3130 3130 3131 3132
3146 3146 3147 3147 3147 3147 3148 3148 3147 3147 3147 3147 3147 3147 3146 3145 3144 3142 3141 3138 3136 3134 3133 3132 3131 3132 3130 3129 3126 3126 3125 3125 3125 3125 3126 3127 3127 3127 3127 3128 3128 3127 3128 3128 3130 3131 3130
3144 3144 3145 3145 3146 3146 3146 3146 3145 3145 3145 3145 3145 3144 3144 3143 3142 3140 3139 3136 3136 3134 3131 3130 3130 3128 3127 3126 3124 3123 3122 3122 3122 3122 3122 3123 3125 3126 3125 3125 3125 3125 3127 3128 3129 3128 3127
3142 3143 3143 3143 3143 3144 3144 3144 3144 3144 3144 3143 3142 3142 3142 3141 3140 3139 3136 3134 3132 3132 3129 3127 3125 3124 3124 3124 3123 3122 3123 3123 3122 3122 3121 3123 3122 3123 3124 3124 3123 3123 3123 3124 3124 3122 3122
3140 3140 3141 3141 3142 3142 3142 3142 3142 3141 3141 3141 3141 3140 3139 3139 3138 3137 3135 3133 3130 3127 3127 3124 3122 3122 3123 3123 3122 3123 3123 3122 3122 3123 3122 3122 3123 3122 3122 3122 3122 3121 3120 3120 3122 3121 3118
3137 3138 3138 3139 3139 3139 3139 3139 3139 3139 3139 3139 3139 3138 3137 3137 3138 3134 3132 3130 3128 3126 3123 3122 3120 3121 3122 3122 3123 3122 3122 3124 3123 3122 3121 3121 3120 3120 3119 3119 3119 3118 3116 3116 3115 3113 3113
3135 3135 3135 3136 3136 3136 3136 3136 3137 3136 3136 3136 3136 3136 3135 3134 3133 3131 3131 3128 3126 3126 3125 3122 3121 3121 3121 3123 3122 3122 3121 3120 3121 3120 3122 3119 3117 3117 3116 3116 3115 3115 3115 3113 3111 3109 3106
3133 3133 3133 3133 3133 3133 3133 3133 3132 3133 3132 3132 3133 3133 3132 3131 3130 3128 3127 3126 3126 3128 3121 3120 3119 3119 3120 3120 3120 3120 3120 3120 3118 3116 3115 3114 3113 3113 3113 3112 3112 3112 3111 3109 3106 3105 3100
3129 3130 3130 3130 3129 3130 3130 3130 3129 3128 3128 3128 3129 3129 3129 3128 3127 3125 3125 3125 3126 3123 3122 3120 3118 3117 3117 3117 3118 3117 3117 3116 3116 3114 3111 3110 3109 3109 3109 3108 3108 3108 3109 3107 3103 3101 3094
3126 3126 3126 3127 3126 3126 3126 3126 3126 3125 3124 3124 3124 3124 3124 3124 3123 3123 3123 3124 3123 3119 3117 3116 3116 3117 3116 3115 3114 3113 3113 3113 3112 3111 3110 3108 3106 3105 3104 3105 3105 3103 3105 3106 3102 3098 3088
3121 3122 3122 3122 3122 3122 3122 3122 3122 3122 3121 3120 3119 3119 3120 3119 3119 3119 3120 3120 3118 3116 3116 3114 3113 3112 3111 3111 3111 3111 3109 3109 3107 3108 3110 3107 3104 3103 3102 3100 3103 3099 3099 3099 3097 3092 3089
3116 3116 3117 3118 3118 3119 3118 3118 3119 3118 3118 3116 3116 3115 3115 3115 3114 3114 3114 3113 3112 3112 3112 3110 3110 3109 3107 3107 3108 3107 3106 3105 3105 3106 3105 3104 3102 3100 3098 3097 3097 3096 3096 3095 3095 3094 3087
3109 3111 3113 3113 3114 3115 3115 3115 3114 3114 3114 3113 3112 3111 3111 3111 3110 3109 3107 3106 3106 3107 3107 3108 3106 3105 3104 3102 3102 3102 3102 3101 3100 3101 3101 3100 3099 3096 3095 3091 3090 3091 3089 3090 3091 3087 3082
3102 3104 3106 3108 3108 3109 3109 3110 3109 3110 3109 3108 3108 3108 3107 3105 3107 3103 3103 3103 3103 3101 3101 3100 3099 3100 3100 3100 3097 3098 3097 3096 3095 3095 3095 3096 3093 3091 3090 3085 3082 3082 3082 3084 3085 3080 3076
3095 3097 3099 3101 3102 3104 3104 3104 3104 3103 3104 3103 3102 3102 3102 3101 3100 3098 3098 3099 3097 3097 3096 3093 3093 3093 3094 3094 3095 3091 3091 3091 3091 3091 3088 3089 3085 3085 3081 3081 3078 3075 3075 3076 3077 3074 3069
3087 3090 3093 3094 3095 3097 3098 3097 3097 3097 3097 3099 3098 3096 3096 3094 3094 3094 3093 3093 3093 3092 3091 3090 3089 3087 3088 3089 3090 3086 3085 3084 3086 3086 3086 3084 3082 3080 3077 3075 3074 3072 3071 3071 3072 3069 3063
3080 3083 3085 3086 3088 3090 3090 3090 3090 3089 3090 3092 3091 3090 3090 3089 3090 3089 3090 3088 3088 3088 3088 3088 3086 3085 3083 3082 3083 3083 3082 3081 3079 3078 3079 3079 3074 3072 3071 3070 3069 3066 3064 3064 3063 3061 3058
3073 3075 3078 3080 3081 3081 3081 3081 3082 3083 3083 3084 3085 3086 3085 3084 3085 3084 3084 3085 3086 3085 3084 3084 3084 3083 3082 3080 3079 3077 3076 3076 3074 3072 3072 3071 3068 3065 3062 3065 3063 3058 3058 3057 3056 3055 3052
3064 3068 3072 3074 3076 3074 3074 3072 3074 3075 3078 3078 3077 3077 3078 3078 3078 3079 3079 3080 3079 3078 3078 3078 3078 3079 3077 3076 3073 3071 3069 3068 3068 3067 3067 3065 3063 3060 3055 3056 3055 3052 3049 3050 3050 3049 3048
3057 3061 3063 3066 3067 3069 3068 3068 3068 3067 3068 3070 3072 3071 3071 3070 3073 3073 3074 3075 3075 3074 3074 3074 3073 3073 3072 3068 3066 3065 3063 3061 3061 3061 3061 3060 3059 3058 3055 3055 3054 3046 3046 3046 3046 3045 3043
3047 3053 3056 3058 3060 3062 3063 3063 3062 3060 3060 3060 3062 3065 3066 3065 3067 3068 3068 3068 3068 3068 3069 3069 3068 3067 3065 3063 3062 3059 3056 3054 3052 3051 3051 3055 3057 3056 3055 3052 3047 3044 3042 3042 3040 3040 3037
3039 3044 3046 3050 3052 3053 3055 3056 3055 3054 3053 3052 3055 3060 3063 3064 3063 3063 3063 3063 3062 3062 3062 3062 3060 3060 3060 3059 3058 3057 3056 3052 3051 3051 3050 3049 3051 3053 3052 3051 3046 3039 3039 3038 3036 3033 3031
3030 3035 3040 3042 3045 3046 3047 3049 3049 3048 3047 3049 3052 3055 3056 3058 3058 3059 3059 3058 3057 3056 3056 3056 3055 3056 3054 3053 3053 3055 3053 3053 3052 3050 3049 3047 3045 3045 3045 3046 3042 3037 3035 3034 3036 3035 3027
3021 3025 3033 3034 3036 3040 3040 3042 3042 3041 3041 3046 3050 3051 3052 3052 3051 3053 3053 3052 3052 3050 3050 3051 3051 3049 3049 3049 3050 3048 3046 3048 3048 3047 3047 3045 3045 3042 3042 3042 3039 3035 3034 3035 3032 3026 3022
3015 3019 3023 3026 3027 3032 3033 3034 3035 3034 3037 3041 3047 3048 3048 3049 3045 3045 3045 3047 3047 3046 3045 3044 3046 3044 3043 3043 3044 3044 3044 3041 3043 3044 3043 3043 3041 3041 3041 3037 3034 3032 3029 3027 3024 3020 3016